Location: *
(50.2903°S, 172.5375°W)
Time: 17:55:19
(UTC+00:00)

Spot 4 Rocket - Pass Details

Date: 17 November 2019
Orbit: 777 x 781 km, 98.7° (Epoch: 14 December)

Event Time Altitude Azimuth Distance (km) Brightness Sun altitude
Exits shadow 13:52:46 15° 347° (NNW) 2,049 5.7 -12.5°
Maximum altitude 13:56:53 44° 278° (W) 1,092 4.5 -12.1°
Drops below altitude 10° 14:01:54 10° 206° (SSW) 2,374 6.9 -11.6°
Sets 14:04:21 0° 199° (SSW) 3,309 7.7 -11.3°
